STARLINK-1210 (45207 NORAD) Tracking and Keplerian Element Data

This shows tracking and keplerian element data for the satellite.

Feedback or suggestion? Click here.




ElementValue
Catalog45207
NameSTARLINK-1210
Epoch Orbit2212
Epoch Day190.25001157
Epoch Year2020
RAAN321.184
Inclination52.9989
Eccentricity0.0001094
Argument of Perigee103.9829
Mean Anonmoly58.2102
Mean Motion15.05559225
Decay Rate0.00036104
L11 45207U 20012AF 20190.25001157 .00036104 00000-0 24858-2 0 9999
L22 45207 52.9989 321.1840 0001094 103.9829 58.2102 15.05559225 22121

Live tracking and technical data element details for STARLINK-1210 (NORAD 45207). STARLINK-1210 can be tracked NOW for your location showing map with azimuth and elevation plus other details from your city location.

Track the satellite on the map from your city or location and see movement details for azimuth, elevation, latitude, longitude, range, height, and movement on the map or in text.







IsCatalogInMostPopularTable: catalog: 45207, numindb: 27
Update: records affected: 1



GetName: 45207 STARLINK-1210

Hit Count: updated at: Thu, 09 Jul 2020 02:22:13 GMT